contact:dominique.lefevre@mio.osupytheas.fr, maurice.libes@osupytheas.fr, didier.mallarino@osupytheas.fr
Project:EMSO http://www.emso-fr.org/EMSO-France
Depth: 2436.0 m
Title:EMSO Ligure Ouest : Data MII capteur MICROCAT
DateTime_Computer,Latitude,Longitude,Temperature,Conductivity,Pressure,DateTime_Instrument
DateTime_Computer,Latitude,Longitude,degC,S m-1,dbar,DateTime_Instrument
2020-04-28T00:00:39Z,42.805,6.029,13.2971,4.59978,2470.156,2020-4-28T02:01:20Z
2020-04-28T00:03:42Z,42.805,6.029,13.2966,4.59978,2470.171,2020-4-28T02:04:23Z
2020-04-28T00:06:45Z,42.805,6.029,13.2969,4.59982,2470.217,2020-4-28T02:07:26Z
2020-04-28T00:09:49Z,42.805,6.029,13.2973,4.59982,2470.133,2020-4-28T02:10:29Z
2020-04-28T00:12:52Z,42.805,6.029,13.2966,4.59976,2470.156,2020-4-28T02:13:32Z
2020-04-28T00:15:55Z,42.805,6.029,13.2971,4.59978,2470.124,2020-4-28T02:16:36Z
2020-04-28T00:18:58Z,42.805,6.029,13.2967,4.59978,2470.11,2020-4-28T02:19:39Z
2020-04-28T00:22:02Z,42.805,6.029,13.2979,4.59990,2470.156,2020-4-28T02:22:42Z
2020-04-28T00:25:05Z,42.805,6.029,13.2976,4.59982,2470.147,2020-4-28T02:25:45Z
2020-04-28T00:28:08Z,42.805,6.029,13.2979,4.59974,2470.147,2020-4-28T02:28:49Z
2020-04-28T00:31:11Z,42.805,6.029,13.2983,4.59989,2470.11,2020-4-28T02:31:52Z
2020-04-28T00:34:15Z,42.805,6.029,13.3005,4.60004,2470.171,2020-4-28T02:34:55Z
2020-04-28T00:37:18Z,42.805,6.029,13.2989,4.59994,2470.133,2020-4-28T02:37:58Z
2020-04-28T00:40:21Z,42.805,6.029,13.2977,4.59981,2470.133,2020-4-28T02:41:02Z
2020-04-28T00:43:24Z,42.805,6.029,13.2968,4.59979,2470.147,2020-4-28T02:44:05Z
2020-04-28T00:46:28Z,42.805,6.029,13.2967,4.59983,2470.11,2020-4-28T02:47:08Z
2020-04-28T00:49:31Z,42.805,6.029,13.2974,4.59981,2470.156,2020-4-28T02:50:12Z
2020-04-28T00:52:34Z,42.805,6.029,13.2967,4.59978,2470.147,2020-4-28T02:53:15Z
2020-04-28T00:55:37Z,42.805,6.029,13.2968,4.59972,2470.156,2020-4-28T02:56:18Z
2020-04-28T00:58:41Z,42.805,6.029,13.2967,4.59976,2470.11,2020-4-28T02:59:21Z
2020-04-28T01:01:44Z,42.805,6.029,13.2967,4.59976,2470.133,2020-4-28T03:02:24Z
2020-04-28T01:04:47Z,42.805,6.029,13.2970,4.59974,2470.133,2020-4-28T03:05:28Z
2020-04-28T01:07:50Z,42.805,6.029,13.2967,4.59978,2470.124,2020-4-28T03:08:31Z
2020-04-28T01:10:54Z,42.805,6.029,13.2969,4.59976,2470.156,2020-4-28T03:11:34Z
2020-04-28T01:13:57Z,42.805,6.029,13.2969,4.59978,2470.133,2020-4-28T03:14:38Z
2020-04-28T01:17:00Z,42.805,6.029,13.2961,4.59975,2470.11,2020-4-28T03:17:41Z
2020-04-28T01:20:04Z,42.805,6.029,13.2965,4.59972,2470.133,2020-4-28T03:20:44Z
2020-04-28T01:23:07Z,42.805,6.029,13.2968,4.59977,2470.11,2020-4-28T03:23:47Z
2020-04-28T01:26:10Z,42.805,6.029,13.2968,4.59975,2470.124,2020-4-28T03:26:51Z
2020-04-28T01:29:13Z,42.805,6.029,13.2966,4.59971,2470.1,2020-4-28T03:29:54Z
2020-04-28T01:32:17Z,42.805,6.029,13.2964,4.59974,2470.11,2020-4-28T03:32:57Z
2020-04-28T01:35:20Z,42.805,6.029,13.2970,4.59971,2470.124,2020-4-28T03:36:00Z
2020-04-28T01:38:23Z,42.805,6.029,13.2964,4.59975,2470.11,2020-4-28T03:39:04Z
2020-04-28T01:41:26Z,42.805,6.029,13.2971,4.59973,2470.1,2020-4-28T03:42:07Z
2020-04-28T01:44:30Z,42.805,6.029,13.2967,4.59975,2470.1,2020-4-28T03:45:10Z
2020-04-28T01:47:33Z,42.805,6.029,13.2967,4.59973,2470.11,2020-4-28T03:48:13Z
2020-04-28T01:50:36Z,42.805,6.029,13.2965,4.59974,2470.124,2020-4-28T03:51:17Z
2020-04-28T01:53:39Z,42.805,6.029,13.2968,4.59973,2470.11,2020-4-28T03:54:20Z
2020-04-28T01:56:43Z,42.805,6.029,13.2968,4.59973,2470.11,2020-4-28T03:57:23Z
2020-04-28T01:59:46Z,42.805,6.029,13.2965,4.59975,2470.063,2020-4-28T04:00:26Z
2020-04-28T02:02:49Z,42.805,6.029,13.2968,4.59973,2470.11,2020-4-28T04:03:30Z
2020-04-28T02:05:52Z,42.805,6.029,13.2968,4.59974,2470.087,2020-4-28T04:06:33Z
2020-04-28T02:08:55Z,42.805,6.029,13.2967,4.59971,2470.1,2020-4-28T04:09:36Z
2020-04-28T02:11:59Z,42.805,6.029,13.2967,4.59972,2470.147,2020-4-28T04:12:39Z
2020-04-28T02:15:02Z,42.805,6.029,13.2967,4.59970,2470.11,2020-4-28T04:15:42Z
2020-04-28T02:18:05Z,42.805,6.029,13.2968,4.59976,2470.11,2020-4-28T04:18:46Z
2020-04-28T02:21:08Z,42.805,6.029,13.2968,4.59973,2470.063,2020-4-28T04:21:49Z
2020-04-28T02:24:12Z,42.805,6.029,13.2971,4.59972,2470.087,2020-4-28T04:24:52Z
2020-04-28T02:27:15Z,42.805,6.029,13.2968,4.59974,2470.11,2020-4-28T04:27:55Z
2020-04-28T02:30:18Z,42.805,6.029,13.2970,4.59973,2470.087,2020-4-28T04:30:59Z
2020-04-28T02:33:21Z,42.805,6.029,13.2969,4.59972,2470.087,2020-4-28T04:34:02Z
2020-04-28T02:36:25Z,42.805,6.029,13.2967,4.59976,2470.063,2020-4-28T04:37:05Z
2020-04-28T02:39:28Z,42.805,6.029,13.2964,4.59976,2470.077,2020-4-28T04:40:08Z
2020-04-28T02:42:31Z,42.805,6.029,13.2968,4.59976,2470.087,2020-4-28T04:43:12Z
2020-04-28T02:45:34Z,42.805,6.029,13.2968,4.59972,2470.063,2020-4-28T04:46:15Z
2020-04-28T02:48:37Z,42.805,6.029,13.2970,4.59974,2470.087,2020-4-28T04:49:18Z
2020-04-28T02:51:41Z,42.805,6.029,13.2968,4.59972,2470.087,2020-4-28T04:52:21Z
2020-04-28T02:54:44Z,42.805,6.029,13.2969,4.59970,2470.063,2020-4-28T04:55:25Z
2020-04-28T02:57:47Z,42.805,6.029,13.2969,4.59972,2470.087,2020-4-28T04:58:28Z
2020-04-28T03:00:50Z,42.805,6.029,13.2970,4.59973,2470.087,2020-4-28T05:01:31Z
2020-04-28T03:03:54Z,42.805,6.029,13.2968,4.59974,2470.063,2020-4-28T05:04:34Z
2020-04-28T03:06:57Z,42.805,6.029,13.2973,4.59972,2470.087,2020-4-28T05:07:37Z
2020-04-28T03:10:00Z,42.805,6.029,13.2968,4.59971,2470.077,2020-4-28T05:10:41Z
2020-04-28T03:13:03Z,42.805,6.029,13.2967,4.59972,2470.087,2020-4-28T05:13:44Z
2020-04-28T03:16:07Z,42.805,6.029,13.2971,4.59972,2470.087,2020-4-28T05:16:47Z
2020-04-28T03:19:10Z,42.805,6.029,13.2965,4.59971,2470.063,2020-4-28T05:19:50Z
2020-04-28T03:22:13Z,42.805,6.029,13.2967,4.59972,2470.077,2020-4-28T05:22:54Z
2020-04-28T03:25:16Z,42.805,6.029,13.2968,4.59970,2470.063,2020-4-28T05:25:57Z
2020-04-28T03:28:20Z,42.805,6.029,13.2964,4.59972,2470.087,2020-4-28T05:29:00Z
2020-04-28T03:31:23Z,42.805,6.029,13.2966,4.59971,2470.053,2020-4-28T05:32:03Z
2020-04-28T03:34:26Z,42.805,6.029,13.2966,4.59973,2470.04,2020-4-28T05:35:07Z
2020-04-28T03:37:29Z,42.805,6.029,13.2967,4.59970,2470.077,2020-4-28T05:38:10Z
2020-04-28T03:40:32Z,42.805,6.029,13.2966,4.59971,2470.1,2020-4-28T05:41:13Z
2020-04-28T03:43:36Z,42.805,6.029,13.2967,4.59973,2470.063,2020-4-28T05:44:16Z
2020-04-28T03:46:39Z,42.805,6.029,13.2967,4.59970,2470.1,2020-4-28T05:47:20Z
2020-04-28T03:49:42Z,42.805,6.029,13.2967,4.59970,2470.063,2020-4-28T05:50:23Z
2020-04-28T03:52:45Z,42.805,6.029,13.2970,4.59974,2470.063,2020-4-28T05:53:26Z
2020-04-28T03:55:49Z,42.805,6.029,13.2968,4.59971,2470.03,2020-4-28T05:56:29Z
2020-04-28T03:58:52Z,42.805,6.029,13.2968,4.59973,2470.077,2020-4-28T05:59:32Z
2020-04-28T04:01:55Z,42.805,6.029,13.2968,4.59974,2470.1,2020-4-28T06:02:36Z
2020-04-28T04:04:58Z,42.805,6.029,13.2967,4.59979,2470.053,2020-4-28T06:05:39Z
2020-04-28T04:08:02Z,42.805,6.029,13.2966,4.59973,2470.053,2020-4-28T06:08:42Z
2020-04-28T04:11:05Z,42.805,6.029,13.2967,4.59972,2470.063,2020-4-28T06:11:45Z
2020-04-28T04:14:08Z,42.805,6.029,13.2971,4.59971,2470.053,2020-4-28T06:14:49Z
2020-04-28T04:17:11Z,42.805,6.029,13.2967,4.59975,2470.04,2020-4-28T06:17:52Z
2020-04-28T04:20:14Z,42.805,6.029,13.2967,4.59994,2470.063,2020-4-28T06:20:55Z
2020-04-28T04:23:18Z,42.805,6.029,13.2967,4.59973,2470.053,2020-4-28T06:23:58Z
2020-04-28T04:26:21Z,42.805,6.029,13.2967,4.59974,2470.077,2020-4-28T06:27:02Z
2020-04-28T04:29:24Z,42.805,6.029,13.2969,4.59973,2470.063,2020-4-28T06:30:05Z
2020-04-28T04:32:27Z,42.805,6.029,13.2970,4.59971,2470.063,2020-4-28T06:33:08Z
2020-04-28T04:35:31Z,42.805,6.029,13.2967,4.59972,2470.063,2020-4-28T06:36:11Z
2020-04-28T04:38:34Z,42.805,6.029,13.2968,4.59973,2470.04,2020-4-28T06:39:14Z
2020-04-28T04:41:37Z,42.805,6.029,13.2968,4.59973,2470.077,2020-4-28T06:42:18Z
2020-04-28T04:44:40Z,42.805,6.029,13.2968,4.59969,2470.063,2020-4-28T06:45:21Z
2020-04-28T04:47:43Z,42.805,6.029,13.2968,4.59969,2470.017,2020-4-28T06:48:24Z
2020-04-28T04:50:47Z,42.805,6.029,13.2965,4.59970,2470.077,2020-4-28T06:51:27Z
2020-04-28T04:53:50Z,42.805,6.029,13.2967,4.59970,2470.077,2020-4-28T06:54:31Z
2020-04-28T04:56:53Z,42.805,6.029,13.2966,4.59973,2470.077,2020-4-28T06:57:34Z
2020-04-28T04:59:57Z,42.805,6.029,13.2967,4.59970,2470.04,2020-4-28T07:00:37Z
2020-04-28T05:03:00Z,42.805,6.029,13.2967,4.59983,2470.053,2020-4-28T07:03:40Z
2020-04-28T05:06:03Z,42.805,6.029,13.2967,4.59968,2470.063,2020-4-28T07:06:44Z
2020-04-28T05:09:06Z,42.805,6.029,13.2965,4.59968,2470.04,2020-4-28T07:09:47Z
2020-04-28T05:12:09Z,42.805,6.029,13.2964,4.59968,2470.077,2020-4-28T07:12:50Z
2020-04-28T05:15:13Z,42.805,6.029,13.2966,4.59968,2470.017,2020-4-28T07:15:53Z
2020-04-28T05:18:16Z,42.805,6.029,13.2971,4.59971,2470.077,2020-4-28T07:18:57Z
2020-04-28T05:21:20Z,42.805,6.029,13.2966,4.59969,2470.077,2020-4-28T07:22:00Z
2020-04-28T05:24:23Z,42.805,6.029,13.2971,4.59973,2470.053,2020-4-28T07:25:04Z
2020-04-28T05:27:26Z,42.805,6.029,13.2968,4.59970,2470.077,2020-4-28T07:28:07Z
2020-04-28T05:30:29Z,42.805,6.029,13.2970,4.59971,2470.077,2020-4-28T07:31:10Z
2020-04-28T05:33:33Z,42.805,6.029,13.2968,4.59971,2470.077,2020-4-28T07:34:13Z
2020-04-28T05:36:36Z,42.805,6.029,13.2972,4.59982,2470.04,2020-4-28T07:37:17Z
2020-04-28T05:39:39Z,42.805,6.029,13.2968,4.59971,2470.077,2020-4-28T07:40:20Z
2020-04-28T05:42:42Z,42.805,6.029,13.2968,4.59972,2470.04,2020-4-28T07:43:23Z
2020-04-28T05:45:46Z,42.805,6.029,13.2967,4.59973,2470.04,2020-4-28T07:46:26Z
2020-04-28T05:48:49Z,42.805,6.029,13.2964,4.59970,2470.063,2020-4-28T07:49:30Z
2020-04-28T05:51:52Z,42.805,6.029,13.2968,4.59970,2470.063,2020-4-28T07:52:33Z
2020-04-28T05:54:56Z,42.805,6.029,13.2967,4.59968,2470.04,2020-4-28T07:55:36Z
2020-04-28T05:57:59Z,42.805,6.029,13.2965,4.59971,2470.124,2020-4-28T07:58:39Z
2020-04-28T06:01:02Z,42.805,6.029,13.2967,4.59970,2470.04,2020-4-28T08:01:43Z
2020-04-28T06:04:05Z,42.805,6.029,13.2968,4.59972,2470.04,2020-4-28T08:04:46Z
2020-04-28T06:07:09Z,42.805,6.029,13.2970,4.59973,2470.04,2020-4-28T08:07:49Z
2020-04-28T06:10:12Z,42.805,6.029,13.2968,4.59972,2470.063,2020-4-28T08:10:52Z
2020-04-28T06:13:15Z,42.805,6.029,13.2971,4.59968,2470.03,2020-4-28T08:13:56Z
2020-04-28T06:16:18Z,42.805,6.029,13.2973,4.59968,2470.03,2020-4-28T08:16:59Z
2020-04-28T06:19:21Z,42.805,6.029,13.2968,4.59969,2470.087,2020-4-28T08:20:02Z
2020-04-28T06:22:25Z,42.805,6.029,13.2971,4.59972,2470.063,2020-4-28T08:23:05Z
2020-04-28T06:25:28Z,42.805,6.029,13.2972,4.59968,2470.063,2020-4-28T08:26:09Z
2020-04-28T06:28:31Z,42.805,6.029,13.2968,4.59968,2470.077,2020-4-28T08:29:12Z
2020-04-28T06:31:35Z,42.805,6.029,13.2971,4.59968,2470.053,2020-4-28T08:32:15Z
2020-04-28T06:34:38Z,42.805,6.029,13.2969,4.59969,2470.04,2020-4-28T08:35:19Z
2020-04-28T06:37:41Z,42.805,6.029,13.2970,4.59971,2470.077,2020-4-28T08:38:22Z
2020-04-28T06:40:44Z,42.805,6.029,13.2967,4.59968,2470.053,2020-4-28T08:41:25Z
2020-04-28T06:43:48Z,42.805,6.029,13.2965,4.59968,2470.077,2020-4-28T08:44:28Z
2020-04-28T06:46:51Z,42.805,6.029,13.2968,4.59968,2470.077,2020-4-28T08:47:31Z
2020-04-28T06:49:54Z,42.805,6.029,13.2970,4.59968,2470.063,2020-4-28T08:50:35Z
2020-04-28T06:52:57Z,42.805,6.029,13.2969,4.59978,2470.063,2020-4-28T08:53:38Z
2020-04-28T06:56:01Z,42.805,6.029,13.2969,4.59971,2470.063,2020-4-28T08:56:42Z
2020-04-28T06:59:04Z,42.805,6.029,13.2967,4.59969,2470.053,2020-4-28T08:59:45Z
2020-04-28T07:02:07Z,42.805,6.029,13.2969,4.59970,2470.063,2020-4-28T09:02:48Z
2020-04-28T07:05:11Z,42.805,6.029,13.2971,4.59971,2470.087,2020-4-28T09:05:51Z
2020-04-28T07:08:14Z,42.805,6.029,13.2966,4.59971,2470.04,2020-4-28T09:08:55Z
2020-04-28T07:11:17Z,42.805,6.029,13.2970,4.59968,2470.077,2020-4-28T09:11:58Z
2020-04-28T07:14:20Z,42.805,6.029,13.2970,4.59970,2470.04,2020-4-28T09:15:01Z
2020-04-28T07:17:24Z,42.805,6.029,13.2966,4.59971,2470.087,2020-4-28T09:18:04Z
2020-04-28T07:20:27Z,42.805,6.029,13.2971,4.59972,2470.04,2020-4-28T09:21:07Z
2020-04-28T07:23:30Z,42.805,6.029,13.2970,4.59969,2470.11,2020-4-28T09:24:11Z
2020-04-28T07:26:33Z,42.805,6.029,13.2971,4.59970,2470.053,2020-4-28T09:27:14Z
2020-04-28T07:29:37Z,42.805,6.029,13.2970,4.59969,2470.087,2020-4-28T09:30:17Z
2020-04-28T07:32:40Z,42.805,6.029,13.2970,4.59970,2470.063,2020-4-28T09:33:20Z
2020-04-28T07:35:43Z,42.805,6.029,13.2967,4.59968,2470.063,2020-4-28T09:36:24Z
2020-04-28T07:38:46Z,42.805,6.029,13.2971,4.59971,2470.087,2020-4-28T09:39:27Z
2020-04-28T07:41:50Z,42.805,6.029,13.2970,4.59972,2470.087,2020-4-28T09:42:30Z
2020-04-28T07:44:53Z,42.805,6.029,13.2966,4.59971,2470.1,2020-4-28T09:45:34Z
2020-04-28T07:47:56Z,42.805,6.029,13.2971,4.59977,2470.087,2020-4-28T09:48:37Z
2020-04-28T07:50:59Z,42.805,6.029,13.2968,4.59969,2470.124,2020-4-28T09:51:40Z
2020-04-28T07:54:03Z,42.805,6.029,13.2965,4.59969,2470.087,2020-4-28T09:54:43Z
2020-04-28T07:57:06Z,42.805,6.029,13.2967,4.59972,2470.1,2020-4-28T09:57:46Z
2020-04-28T08:00:09Z,42.805,6.029,13.2967,4.59971,2470.124,2020-4-28T10:00:50Z
2020-04-28T08:03:12Z,42.805,6.029,13.2971,4.59972,2470.087,2020-4-28T10:03:53Z
2020-04-28T08:06:16Z,42.805,6.029,13.2968,4.59968,2470.124,2020-4-28T10:06:56Z
2020-04-28T08:09:19Z,42.805,6.029,13.2964,4.59969,2470.11,2020-4-28T10:10:00Z
2020-04-28T08:12:22Z,42.805,6.029,13.2968,4.59971,2470.124,2020-4-28T10:13:03Z
2020-04-28T08:15:25Z,42.805,6.029,13.2968,4.59970,2470.11,2020-4-28T10:16:06Z
2020-04-28T08:18:29Z,42.805,6.029,13.2973,4.59969,2470.087,2020-4-28T10:19:09Z
2020-04-28T08:21:32Z,42.805,6.029,13.2969,4.59969,2470.124,2020-4-28T10:22:13Z
2020-04-28T08:24:35Z,42.805,6.029,13.2968,4.59970,2470.087,2020-4-28T10:25:16Z
2020-04-28T08:27:39Z,42.805,6.029,13.2969,4.59969,2470.077,2020-4-28T10:28:19Z
2020-04-28T08:30:42Z,42.805,6.029,13.2968,4.59968,2470.11,2020-4-28T10:31:22Z
2020-04-28T08:33:45Z,42.805,6.029,13.2968,4.59968,2470.087,2020-4-28T10:34:26Z
2020-04-28T08:36:48Z,42.805,6.029,13.2968,4.59974,2470.124,2020-4-28T10:37:29Z
2020-04-28T08:39:52Z,42.805,6.029,13.2967,4.59974,2470.156,2020-4-28T10:40:32Z
2020-04-28T08:42:55Z,42.805,6.029,13.2969,4.59968,2470.11,2020-4-28T10:43:35Z
2020-04-28T08:45:58Z,42.805,6.029,13.2968,4.59968,2470.11,2020-4-28T10:46:39Z
2020-04-28T08:49:01Z,42.805,6.029,13.2968,4.59969,2470.11,2020-4-28T10:49:42Z
2020-04-28T08:52:05Z,42.805,6.029,13.2967,4.59971,2470.1,2020-4-28T10:52:45Z
2020-04-28T08:55:08Z,42.805,6.029,13.2971,4.59969,2470.11,2020-4-28T10:55:48Z
2020-04-28T08:58:11Z,42.805,6.029,13.2973,4.59970,2470.11,2020-4-28T10:58:52Z
2020-04-28T09:01:14Z,42.805,6.029,13.2967,4.59971,2470.171,2020-4-28T11:01:55Z
2020-04-28T09:04:18Z,42.805,6.029,13.2966,4.59968,2470.11,2020-4-28T11:04:58Z
2020-04-28T09:07:21Z,42.805,6.029,13.2974,4.59969,2470.124,2020-4-28T11:08:01Z
2020-04-28T09:10:24Z,42.805,6.029,13.2969,4.59970,2470.133,2020-4-28T11:11:04Z
2020-04-28T09:13:27Z,42.805,6.029,13.2967,4.59971,2470.1,2020-4-28T11:14:08Z
2020-04-28T09:16:31Z,42.805,6.029,13.2968,4.59971,2470.124,2020-4-28T11:17:11Z
2020-04-28T09:19:34Z,42.805,6.029,13.2968,4.59969,2470.133,2020-4-28T11:20:14Z
2020-04-28T09:22:37Z,42.805,6.029,13.2968,4.59969,2470.133,2020-4-28T11:23:18Z
2020-04-28T09:25:40Z,42.805,6.029,13.2970,4.59971,2470.133,2020-4-28T11:26:21Z
2020-04-28T09:28:44Z,42.805,6.029,13.2970,4.59971,2470.124,2020-4-28T11:29:24Z
2020-04-28T09:31:47Z,42.805,6.029,13.2968,4.59968,2470.147,2020-4-28T11:32:27Z
2020-04-28T09:34:50Z,42.805,6.029,13.2968,4.59970,2470.133,2020-4-28T11:35:31Z
2020-04-28T09:37:53Z,42.805,6.029,13.2968,4.59975,2470.133,2020-4-28T11:38:34Z
2020-04-28T09:40:56Z,42.805,6.029,13.2970,4.59969,2470.11,2020-4-28T11:41:37Z
2020-04-28T09:44:00Z,42.805,6.029,13.2970,4.59971,2470.147,2020-4-28T11:44:40Z
2020-04-28T09:47:03Z,42.805,6.029,13.2966,4.59968,2470.11,2020-4-28T11:47:44Z
2020-04-28T09:50:06Z,42.805,6.029,13.2966,4.59969,2470.124,2020-4-28T11:50:47Z
2020-04-28T09:53:10Z,42.805,6.029,13.2967,4.59968,2470.133,2020-4-28T11:53:50Z
2020-04-28T09:56:13Z,42.805,6.029,13.2973,4.59968,2470.11,2020-4-28T11:56:53Z
2020-04-28T09:59:16Z,42.805,6.029,13.2967,4.59968,2470.087,2020-4-28T11:59:57Z
2020-04-28T10:02:19Z,42.805,6.029,13.2964,4.59975,2470.124,2020-4-28T12:03:00Z
2020-04-28T10:05:23Z,42.805,6.029,13.2968,4.59972,2470.133,2020-4-28T12:06:03Z
2020-04-28T10:08:26Z,42.805,6.029,13.2967,4.59971,2470.124,2020-4-28T12:09:06Z
2020-04-28T10:11:29Z,42.805,6.029,13.2970,4.59976,2470.11,2020-4-28T12:12:10Z
2020-04-28T10:14:32Z,42.805,6.029,13.2971,4.59968,2470.147,2020-4-28T12:15:13Z
2020-04-28T10:17:36Z,42.805,6.029,13.2971,4.59968,2470.147,2020-4-28T12:18:16Z
2020-04-28T10:20:39Z,42.805,6.029,13.2971,4.59971,2470.133,2020-4-28T12:21:19Z
2020-04-28T10:23:42Z,42.805,6.029,13.2967,4.59972,2470.147,2020-4-28T12:24:23Z
2020-04-28T10:26:45Z,42.805,6.029,13.2967,4.59973,2470.119,2020-4-28T12:27:26Z
2020-04-28T10:29:48Z,42.805,6.029,13.2967,4.59970,2470.124,2020-4-28T12:30:29Z
2020-04-28T10:32:52Z,42.805,6.029,13.2966,4.59971,2470.133,2020-4-28T12:33:32Z
2020-04-28T10:35:55Z,42.805,6.029,13.2967,4.59969,2470.11,2020-4-28T12:36:35Z
2020-04-28T10:38:58Z,42.805,6.029,13.2968,4.59969,2470.1,2020-4-28T12:39:39Z
2020-04-28T10:42:01Z,42.805,6.029,13.2968,4.59971,2470.133,2020-4-28T12:42:42Z
2020-04-28T10:45:05Z,42.805,6.029,13.2968,4.59970,2470.087,2020-4-28T12:45:45Z
2020-04-28T10:48:08Z,42.805,6.029,13.2967,4.59972,2470.1,2020-4-28T12:48:48Z
2020-04-28T10:51:11Z,42.805,6.029,13.2974,4.59968,2470.124,2020-4-28T12:51:52Z
2020-04-28T10:54:14Z,42.805,6.029,13.2968,4.59970,2470.147,2020-4-28T12:54:55Z
2020-04-28T10:57:18Z,42.805,6.029,13.2964,4.59969,2470.1,2020-4-28T12:57:58Z
2020-04-28T11:00:21Z,42.805,6.029,13.2969,4.59971,2470.11,2020-4-28T13:01:01Z
2020-04-28T11:03:24Z,42.805,6.029,13.2962,4.59970,2470.124,2020-4-28T13:04:05Z
2020-04-28T11:06:27Z,42.805,6.029,13.2971,4.59968,2470.124,2020-4-28T13:07:08Z
2020-04-28T11:09:31Z,42.805,6.029,13.2965,4.59968,2470.087,2020-4-28T13:10:11Z
2020-04-28T11:12:34Z,42.805,6.029,13.2966,4.59970,2470.11,2020-4-28T13:13:14Z
2020-04-28T11:15:37Z,42.805,6.029,13.2970,4.59971,2470.11,2020-4-28T13:16:18Z
2020-04-28T11:18:41Z,42.805,6.029,13.2967,4.59969,2470.11,2020-4-28T13:19:21Z
2020-04-28T11:21:44Z,42.805,6.029,13.2968,4.59968,2470.1,2020-4-28T13:22:24Z
2020-04-28T11:24:47Z,42.805,6.029,13.2971,4.59968,2470.11,2020-4-28T13:25:28Z
2020-04-28T11:27:51Z,42.805,6.029,13.2968,4.59973,2470.087,2020-4-28T13:28:31Z
2020-04-28T11:30:54Z,42.805,6.029,13.2971,4.59970,2470.11,2020-4-28T13:31:34Z
2020-04-28T11:33:57Z,42.805,6.029,13.2968,4.59968,2470.11,2020-4-28T13:34:38Z
2020-04-28T11:37:00Z,42.805,6.029,13.2970,4.59972,2470.11,2020-4-28T13:37:41Z
2020-04-28T11:40:04Z,42.805,6.029,13.2967,4.59968,2470.11,2020-4-28T13:40:44Z
2020-04-28T11:43:07Z,42.805,6.029,13.2968,4.59973,2470.11,2020-4-28T13:43:48Z
2020-04-28T11:46:10Z,42.805,6.029,13.2967,4.59968,2470.063,2020-4-28T13:46:51Z
2020-04-28T11:49:14Z,42.805,6.029,13.2968,4.59970,2470.077,2020-4-28T13:49:54Z
2020-04-28T11:52:17Z,42.805,6.029,13.2968,4.59969,2470.1,2020-4-28T13:52:57Z
2020-04-28T11:55:20Z,42.805,6.029,13.2968,4.59971,2470.087,2020-4-28T13:56:01Z
2020-04-28T11:58:23Z,42.805,6.029,13.2967,4.59970,2470.11,2020-4-28T13:59:04Z
2020-04-28T12:01:27Z,42.805,6.029,13.2966,4.59969,2470.124,2020-4-28T14:02:07Z
2020-04-28T12:04:30Z,42.805,6.029,13.2970,4.59968,2470.087,2020-4-28T14:05:11Z
2020-04-28T12:07:33Z,42.805,6.029,13.2968,4.59970,2470.11,2020-4-28T14:08:14Z
2020-04-28T12:10:37Z,42.805,6.029,13.2968,4.59968,2470.1,2020-4-28T14:11:17Z
2020-04-28T12:13:40Z,42.805,6.029,13.2969,4.59970,2470.087,2020-4-28T14:14:20Z
2020-04-28T12:16:43Z,42.805,6.029,13.2964,4.59968,2470.077,2020-4-28T14:17:24Z
2020-04-28T12:19:46Z,42.805,6.029,13.2967,4.59968,2470.1,2020-4-28T14:20:27Z
2020-04-28T12:22:50Z,42.805,6.029,13.2970,4.59969,2470.087,2020-4-28T14:23:30Z
2020-04-28T12:25:53Z,42.805,6.029,13.2969,4.59971,2470.063,2020-4-28T14:26:33Z
2020-04-28T12:28:56Z,42.805,6.029,13.2967,4.59971,2470.063,2020-4-28T14:29:37Z
2020-04-28T12:31:59Z,42.805,6.029,13.2968,4.59969,2470.077,2020-4-28T14:32:40Z
2020-04-28T12:35:02Z,42.805,6.029,13.2967,4.59968,2470.077,2020-4-28T14:35:43Z
2020-04-28T12:38:06Z,42.805,6.029,13.2971,4.59970,2470.063,2020-4-28T14:38:46Z
2020-04-28T12:41:09Z,42.805,6.029,13.2971,4.59968,2470.053,2020-4-28T14:41:50Z
2020-04-28T12:44:12Z,42.805,6.029,13.2965,4.59968,2470.077,2020-4-28T14:44:53Z
2020-04-28T12:47:15Z,42.805,6.029,13.2970,4.59971,2470.077,2020-4-28T14:47:56Z
2020-04-28T12:50:19Z,42.805,6.029,13.2968,4.59969,2470.063,2020-4-28T14:50:59Z
2020-04-28T12:53:22Z,42.805,6.029,13.2964,4.59969,2470.077,2020-4-28T14:54:03Z
2020-04-28T12:56:25Z,42.805,6.029,13.2971,4.59974,2470.04,2020-4-28T14:57:06Z
2020-04-28T12:59:29Z,42.805,6.029,13.2967,4.59969,2470.063,2020-4-28T15:00:09Z
2020-04-28T13:02:32Z,42.805,6.029,13.2966,4.59969,2470.04,2020-4-28T15:03:12Z
2020-04-28T13:05:35Z,42.805,6.029,13.2967,4.59972,2470.077,2020-4-28T15:06:16Z
2020-04-28T13:08:38Z,42.805,6.029,13.2968,4.59969,2470.04,2020-4-28T15:09:19Z
2020-04-28T13:11:42Z,42.805,6.029,13.2972,4.59969,2470.04,2020-4-28T15:12:22Z
2020-04-28T13:14:45Z,42.805,6.029,13.2964,4.59970,2470.053,2020-4-28T15:15:25Z
2020-04-28T13:17:48Z,42.805,6.029,13.2967,4.59972,2470.077,2020-4-28T15:18:29Z
2020-04-28T13:20:51Z,42.805,6.029,13.2967,4.59970,2470.04,2020-4-28T15:21:32Z
2020-04-28T13:23:55Z,42.805,6.029,13.2967,4.59968,2470.04,2020-4-28T15:24:35Z
2020-04-28T13:26:58Z,42.805,6.029,13.2966,4.59969,2470.063,2020-4-28T15:27:39Z
2020-04-28T13:30:01Z,42.805,6.029,13.2966,4.59968,2470.077,2020-4-28T15:30:42Z
2020-04-28T13:33:05Z,42.805,6.029,13.2969,4.59970,2469.993,2020-4-28T15:33:45Z
2020-04-28T13:36:08Z,42.805,6.029,13.2969,4.59969,2470.04,2020-4-28T15:36:48Z
2020-04-28T13:39:11Z,42.805,6.029,13.2966,4.59968,2470.053,2020-4-28T15:39:52Z
2020-04-28T13:42:14Z,42.805,6.029,13.2973,4.59969,2470.017,2020-4-28T15:42:55Z
2020-04-28T13:45:18Z,42.805,6.029,13.2964,4.59970,2470.03,2020-4-28T15:45:58Z
2020-04-28T13:48:21Z,42.805,6.029,13.2971,4.59972,2470.017,2020-4-28T15:49:02Z
2020-04-28T13:51:24Z,42.805,6.029,13.2968,4.59970,2469.979,2020-4-28T15:52:05Z
2020-04-28T13:54:28Z,42.805,6.029,13.2968,4.59971,2470.017,2020-4-28T15:55:08Z
2020-04-28T13:57:31Z,42.805,6.029,13.2968,4.59971,2470.03,2020-4-28T15:58:12Z
2020-04-28T14:00:34Z,42.805,6.029,13.2968,4.59973,2470.03,2020-4-28T16:01:15Z
2020-04-28T14:03:37Z,42.805,6.029,13.2966,4.59970,2470.053,2020-4-28T16:04:18Z
2020-04-28T14:06:40Z,42.805,6.029,13.2964,4.59970,2470.007,2020-4-28T16:07:21Z
2020-04-28T14:09:44Z,42.805,6.029,13.2967,4.59970,2470.017,2020-4-28T16:10:24Z
2020-04-28T14:12:47Z,42.805,6.029,13.2966,4.59973,2470.017,2020-4-28T16:13:27Z
2020-04-28T14:15:50Z,42.805,6.029,13.2968,4.59969,2470.017,2020-4-28T16:16:31Z
2020-04-28T14:18:53Z,42.805,6.029,13.2967,4.59969,2470.017,2020-4-28T16:19:34Z
2020-04-28T14:21:57Z,42.805,6.029,13.2967,4.59971,2470.017,2020-4-28T16:22:37Z
2020-04-28T14:25:00Z,42.805,6.029,13.2971,4.59973,2470.017,2020-4-28T16:25:40Z
2020-04-28T14:28:03Z,42.805,6.029,13.2968,4.59973,2470.017,2020-4-28T16:28:44Z
2020-04-28T14:31:06Z,42.805,6.029,13.2966,4.59972,2470.017,2020-4-28T16:31:47Z
2020-04-28T14:34:09Z,42.805,6.029,13.2965,4.59969,2470.017,2020-4-28T16:34:50Z
2020-04-28T14:37:13Z,42.805,6.029,13.2968,4.59970,2469.993,2020-4-28T16:37:53Z
2020-04-28T14:40:16Z,42.805,6.029,13.2967,4.59970,2470.007,2020-4-28T16:40:57Z
2020-04-28T14:43:19Z,42.805,6.029,13.2967,4.59969,2470.04,2020-4-28T16:44:00Z
2020-04-28T14:46:23Z,42.805,6.029,13.2967,4.59969,2469.97,2020-4-28T16:47:03Z
2020-04-28T14:49:26Z,42.805,6.029,13.2964,4.59970,2470.04,2020-4-28T16:50:06Z
2020-04-28T14:52:29Z,42.805,6.029,13.2966,4.59971,2469.993,2020-4-28T16:53:10Z
2020-04-28T14:55:32Z,42.805,6.029,13.2970,4.59971,2470.03,2020-4-28T16:56:13Z
2020-04-28T14:58:36Z,42.805,6.029,13.2967,4.59975,2470.007,2020-4-28T16:59:16Z
2020-04-28T15:01:39Z,42.805,6.029,13.2967,4.59971,2470.007,2020-4-28T17:02:19Z
2020-04-28T15:04:42Z,42.805,6.029,13.2968,4.59969,2469.993,2020-4-28T17:05:23Z
2020-04-28T15:07:45Z,42.805,6.029,13.2970,4.59972,2469.993,2020-4-28T17:08:26Z
2020-04-28T15:10:48Z,42.805,6.029,13.2971,4.59972,2470.03,2020-4-28T17:11:29Z
2020-04-28T15:13:52Z,42.805,6.029,13.2967,4.59973,2469.993,2020-4-28T17:14:32Z